Weather History for Buffalo, WY

Change the Weather History Date:

Saturday, March 30, 2013

  Actual Average Record
Temperature  
Mean Temperature 43 °F 38 °F  
Max Temperature 53 °F 50 °F 71 °F (2012)
Min Temperature 33 °F 27 °F 12 °F (2009)
Degree Days  
Heating Degree Days 22 27  
Month to date heating degree days 913 924  
Since 1 July heating degree days 5862 6164  
Cooling Degree Days 0 0  
Month to date cooling degree days 0 0  
Year to date cooling degree days 0 0  
Moisture  
Dew Point 26 °F    
Average Humidity 50    
Maximum Humidity 70    
Minimum Humidity 30    
Precipitation  
Precipitation T in 0.04 in 0.14 in (2002)
Month to date precipitation 0.08 0.88  
Year to date precipitation 0.69 1.65  
Sea Level Pressure  
Sea Level Pressure 30.11 in    
Wind  
Wind Speed 12 mph (NW)    
Max Wind Speed 36 mph    
Max Gust Speed 44 mph    
Visibility 10 miles    
Events Rain    
T = Trace of Precipitation, MM = Missing Value Source: NWS Daily Summary

Daily Weather History Graph

Daily Weather History Graph

Search for Another Location

Airport:

Trip Planner

Search our weather history database for the weather conditions in past years. The results will help you decide how hot, cold, wet, or windy it might be!

Date:

Astronomy

Mar. 30, 2013 Rise Set
Actual Time 6:51 AM MDT 7:32 PM MDT
Civil Twilight 6:21 AM MDT 8:01 PM MDT
Nautical Twilight 5:47 AM MDT 8:36 PM MDT
Astronomical Twilight 5:11 AM MDT 9:12 PM MDT
Moon 11:51 PM MDT (3/30) 8:39 AM MDT (3/30)
Length of Visible Light 13h 39m
Length of Day
12h 41m
Waning Gibbous, 86% of the Moon is Illuminated
Mar 30
Waning Gibbous
Apr 2
Last Quarter
Apr 10
New
Apr 18
First Quarter
Apr 25
Full

Hourly Weather History & Observations

Time (MDT) Temp. Windchill Dew Point Humidity Pressure Visibility Wind Dir Wind Speed Gust Speed Precip Events Conditions
12:53 AM 45.0 °F 42.6 °F 32.0 °F 60% 30.05 in 10.0 mi WNW 4.6 mph - N/A   Overcast
1:53 AM 45.0 °F 37.4 °F 28.9 °F 53% 30.08 in 10.0 mi NNW 18.4 mph 26.5 mph N/A   Overcast
2:53 AM 43.0 °F 36.4 °F 30.9 °F 62% 30.09 in 10.0 mi West 12.7 mph - N/A   Overcast
3:53 AM 45.0 °F 40.1 °F 28.0 °F 52% 30.06 in 10.0 mi NW 9.2 mph - N/A   Overcast
4:53 AM 39.9 °F 37.8 °F 30.9 °F 70% 30.09 in 10.0 mi North 3.5 mph - N/A   Overcast
5:53 AM 39.0 °F 35.7 °F 30.9 °F 73% 30.09 in 10.0 mi WNW 4.6 mph - N/A   Mostly Cloudy
6:53 AM 41.0 °F 38.0 °F 32.0 °F 70% 30.11 in 10.0 mi NW 4.6 mph - N/A   Mostly Cloudy
7:53 AM 39.9 °F - 30.9 °F 70% 30.13 in 10.0 mi Calm Calm - N/A   Mostly Cloudy
8:53 AM 45.0 °F 43.5 °F 32.0 °F 60% 30.12 in 10.0 mi NNE 3.5 mph - N/A   Mostly Cloudy
9:53 AM 46.9 °F - 32.0 °F 56% 30.12 in 10.0 mi North 12.7 mph 23.0 mph N/A   Overcast
10:53 AM 48.9 °F - 30.9 °F 50% 30.12 in 10.0 mi North 18.4 mph 25.3 mph N/A   Overcast
11:53 AM 48.0 °F - 28.0 °F 46% 30.12 in 10.0 mi NNW 9.2 mph 19.6 mph N/A   Overcast
12:53 PM 46.9 °F - 30.9 °F 54% 30.11 in 10.0 mi NNW 10.4 mph 27.6 mph 0.00 in Rain Light Rain
1:53 PM 51.1 °F - 23.0 °F 33% 30.09 in 10.0 mi NW 24.2 mph 42.6 mph 0.00 in   Mostly Cloudy
2:53 PM 52.0 °F - 27.0 °F 38% 30.09 in 10.0 mi NNW 25.3 mph 38.0 mph N/A   Scattered Clouds
3:53 PM 50.0 °F - 24.1 °F 36% 30.09 in 10.0 mi NNW 23.0 mph 39.1 mph N/A   Clear
4:53 PM 52.0 °F - 21.0 °F 30% 30.10 in 10.0 mi NNW 24.2 mph 34.5 mph N/A   Scattered Clouds
5:53 PM 50.0 °F - 21.9 °F 33% 30.11 in 10.0 mi NNW 26.5 mph 38.0 mph N/A   Partly Cloudy
6:53 PM 48.0 °F - 19.9 °F 33% 30.11 in 10.0 mi NNW 19.6 mph 33.4 mph N/A   Clear
7:53 PM 45.0 °F 38.9 °F 21.0 °F 39% 30.13 in 10.0 mi NW 12.7 mph 25.3 mph N/A   Clear
8:53 PM 39.9 °F 36.7 °F 19.9 °F 45% 30.14 in 10.0 mi NNW 4.6 mph - N/A   Clear
9:53 PM 39.0 °F 36.8 °F 19.9 °F 46% 30.14 in 10.0 mi WSW 3.5 mph - N/A   Clear
10:53 PM 39.0 °F - 19.9 °F 46% 30.13 in 10.0 mi Calm Calm - N/A   Clear
11:53 PM 34.0 °F 29.8 °F 19.9 °F 56% 30.12 in 10.0 mi SSW 4.6 mph - N/A   Clear